Riverside, CA

8:57 AM PST on December 15, 2017 (GMT -0800)
Riverside Municipal

Weather History for KRAL - August, 2012

Change the Weather History Date:

Monday, August 13, 2012

  Actual Average Record
Temperature  
Mean Temperature 91 °F 80 °F  
Max Temperature 105 °F 95 °F 107 °F (1933)
Min Temperature 76 °F 65 °F 48 °F (1949)
Degree Days  
Heating Degree Days 0 0  
Month to date heating degree days 0 0  
Since 1 June heating degree days 0 2  
Since 1 July heating degree days 0 0  
Cooling Degree Days 26 15  
Month to date cooling degree days 259 195  
Year to date cooling degree days 1160 1007  
Since 1 June cooling degree days 889 830  
Growing Degree Days 38 (Base 50)    
Moisture  
Dew Point 58 °F    
Average Humidity 40    
Maximum Humidity 58    
Minimum Humidity 21    
Precipitation  
Precipitation 0.00 in 0.00 in 0.01 in (1931)
Month to date precipitation T 0.08  
Year to date precipitation 2.85 9.34  
Since 1 July precipitation T  
Snow  
Snow 0.00 in - - ()
Month to date snowfall 0.0  
Year to date snowfall 0.0  
Snow Depth 0.00 in    
Sea Level Pressure  
Sea Level Pressure 29.75 in    
Wind  
Wind Speed 3 mph (West)    
Max Wind Speed 15 mph    
Max Gust Speed 20 mph    
Visibility 10 miles    
Events      
T = Trace of Precipitation, MM = Missing Value Source: NWS Daily Summary

Daily Weather History Graph

Daily Weather History Graph

Search for Another Location

Airport or City:

Trip Planner

Search our weather history database for the weather conditions in past years. The results will help you decide how hot, cold, wet, or windy it might be!

Date:

Astronomy

Aug. 13, 2012 Rise Set
Actual Time 6:10 AM PDT 7:38 PM PDT
Civil Twilight 5:43 AM PDT 8:04 PM PDT
Nautical Twilight 5:12 AM PDT 8:36 PM PDT
Astronomical Twilight 4:38 AM PDT 9:09 PM PDT
Moon 2:22 AM PDT (8/13) 4:48 PM PDT (8/13)
Length of Visible Light 14h 20m
Length of Day
13h 27m
Waning Crescent, 15% of the Moon is Illuminated
Aug 13
Waning Crescent
Aug 17
New
Aug 24
First Quarter
Aug 31
Full
Sep 8
Last Quarter

Hourly Weather History & Observations

Time (PDT) Temp. Heat Index Dew Point Humidity Pressure Visibility Wind Dir Wind Speed Gust Speed Precip Events Conditions
12:53 AM 80.1 °F 80.4 °F 57.0 °F 45% 29.77 in 10.0 mi Calm Calm - N/A   Clear
1:53 AM 80.1 °F 80.7 °F 59.0 °F 48% 29.76 in 10.0 mi Calm Calm - N/A   Clear
2:53 AM 79.0 °F - 59.0 °F 50% 29.75 in 10.0 mi Calm Calm - N/A   Clear
3:53 AM 78.1 °F - 59.0 °F 52% 29.75 in 10.0 mi Calm Calm - N/A   Clear
4:53 AM 75.9 °F - 59.0 °F 56% 29.75 in 10.0 mi Calm Calm - N/A   Clear
5:53 AM 75.9 °F - 57.0 °F 52% 29.76 in 10.0 mi Calm Calm - N/A   Clear
6:53 AM 77.0 °F - 57.9 °F 52% 29.78 in 10.0 mi Calm Calm - N/A   Clear
7:53 AM 81.0 °F 81.0 °F 57.0 °F 44% 29.78 in 10.0 mi Calm Calm - N/A   Clear
8:53 AM 86.0 °F 84.5 °F 55.0 °F 35% 29.78 in 10.0 mi Calm Calm - N/A   Clear
9:53 AM 89.1 °F 87.3 °F 55.9 °F 32% 29.78 in 10.0 mi Calm Calm - N/A   Clear
10:53 AM 93.0 °F 90.8 °F 54.0 °F 27% 29.78 in 10.0 mi Variable 3.5 mph - N/A   Partly Cloudy
11:53 AM 97.0 °F 95.0 °F 55.0 °F 24% 29.76 in 10.0 mi Variable 4.6 mph - N/A   Partly Cloudy
12:53 PM 102.0 °F 101.6 °F 57.9 °F 23% 29.73 in 10.0 mi Variable 5.8 mph - N/A   Scattered Clouds
1:53 PM 102.0 °F 101.1 °F 55.9 °F 22% 29.72 in 10.0 mi West 9.2 mph - N/A   Scattered Clouds
3:53 PM 102.0 °F 101.6 °F 57.9 °F 23% 29.70 in 10.0 mi West 12.7 mph 19.6 mph N/A   Scattered Clouds
4:53 PM 100.0 °F 98.3 °F 55.0 °F 22% 29.70 in 10.0 mi West 11.5 mph - N/A   Scattered Clouds
5:53 PM 97.0 °F 96.1 °F 57.9 °F 27% 29.70 in 10.0 mi WNW 9.2 mph 20.7 mph N/A   Scattered Clouds
6:53 PM 93.9 °F 93.2 °F 59.0 °F 31% 29.70 in 10.0 mi West 11.5 mph - N/A   Partly Cloudy
7:53 PM 90.0 °F 89.7 °F 60.1 °F 37% 29.72 in 10.0 mi West 6.9 mph - N/A   Clear
8:53 PM 87.1 °F 86.5 °F 59.0 °F 39% 29.75 in 10.0 mi WNW 4.6 mph - N/A   Clear
9:53 PM 84.0 °F 84.0 °F 60.1 °F 44% 29.77 in 10.0 mi Calm Calm - N/A   Clear
10:53 PM 82.0 °F 82.1 °F 59.0 °F 45% 29.78 in 10.0 mi West 4.6 mph - N/A   Clear
11:53 PM 80.1 °F 80.6 °F 57.9 °F 47% 29.77 in 10.0 mi Calm Calm - N/A   Clear